#timestamp,LO_Frequency,Hit,StdDev 
1524834015.1,286046998.4,N
1524834016.0,286046998.4,N
1524834035.8,286046998.3,N
1524834055.6,286046998.6,N
1524834075.5,286046998.3,N
1524834095.3,286046998.4,N
1524834115.1,286046999.1,N
1524834135.9,286046998.9,N
1524834155.7,286047001.2,N
1524834175.6,286047000.8,N
1524834195.4,286047000.1,N
1524834215.2,286047001.1,N
1524834235.1,286047000.7,N
1524834236.0,286047000.7,N
1524834255.8,286047000.6,N
1524834275.7,286047000.9,N
1524834295.5,286047000.9,N
1524834315.3,286047000.5,N
1524834335.2,286047001.0,N
1524834355.9,286047001.1,N
1524834375.7,286047000.9,N
1524834395.6,286046998.5,N
1524834415.4,286046999.9,N
1524834435.2,286046999.0,N
1524834455.1,286047001.1,N
1524834456.0,286047001.1,N
1524834475.8,286046998.5,N
1524834495.7,286046998.2,N
1524834515.5,286046998.8,N
1524834535.3,286046998.9,N
1524834555.2,286046999.2,N
1524834575.0,286046997.0,N
1524834575.9,286046997.0,N
1524834595.8,286046999.6,N
1524834615.6,286046999.3,N
1524834635.4,286046999.0,N
1524834655.3,286046998.1,N
1524834675.1,286046998.2,N
1524834695.8,286047000.8,N
1524834715.7,286047001.2,N
1524834735.5,286046998.8,N
1524834755.4,286046998.1,N
1524834775.2,286047000.3,N
1524834795.0,286046998.2,N
1524834795.9,286046998.2,N
1524834815.8,286046996.5,N
1524834835.6,286046998.3,N
1524834855.4,286046999.0,N
1524834875.3,286047000.7,N
1524834895.1,286046999.5,N
1524834915.9,286046996.5,N
1524834935.7,286046999.3,N
1524834955.5,286046999.2,N
1524834975.4,286047001.0,N
1524834995.2,286047000.4,N
1524835015.1,286046999.9,N
1524835016.0,286046999.9,N
1524835035.8,286047000.5,N
1524835055.6,286047000.5,N
1524835075.5,286047000.5,N
1524835095.3,286046998.5,N
1524835115.1,286047002.4,N
1524835135.9,286047002.6,N
1524835155.7,286047001.6,N
1524835175.6,286047001.9,N
1524835195.4,286047002.5,N
1524835215.2,286047002.8,N
1524835235.1,286047001.5,N
1524835236.0,286047001.5,N
1524835255.8,286047000.2,N
1524835275.6,286047000.6,N
1524835295.5,286046999.8,N
1524835315.3,286047002.7,N
1524835335.2,286047000.0,N
1524835355.9,286046999.7,N
1524835375.7,286046999.7,N
1524835395.6,286047002.7,N
1524835415.4,286047002.8,N
1524835435.2,286047002.8,N
1524835455.1,286047002.4,N
1524835456.0,286047002.4,N
1524835475.8,286047000.4,N
1524835495.7,286046999.9,N
1524835515.5,286047001.0,N
1524835535.3,286046998.5,N
1524835555.2,286047000.0,N
1524835575.0,286047002.5,N
1524835575.9,286047002.5,N
1524835595.7,286047002.0,N
1524835615.6,286047001.9,N
1524835635.4,286047002.8,N
1524835655.3,286047000.9,N
1524835675.1,286047000.8,N
1524835676.0,286047000.8,N
1524835695.8,286047001.1,N
1524835715.7,286046999.8,N
1524835735.5,286046999.8,N
1524835755.4,286047000.3,N
1524835775.2,286047000.9,N
1524835795.0,286046999.9,N
1524835795.9,286046999.9,N
1524835815.8,286047000.2,N
1524835835.6,286047002.3,N
1524835855.4,286047002.3,N
1524835875.3,286047000.3,N
1524835895.1,286046998.7,N
1524835915.9,286047000.8,N
1524835935.1,286047000.0,N
1524835955.9,286047000.2,N
1524835975.7,286047000.4,N
1524835995.5,286047000.0,N
1524836015.4,286046999.8,N
1524836035.2,286047000.3,N
1524836055.0,286047002.7,N
1524836056.0,286047002.7,N
1524836075.8,286047004.3,Y
1524836095.6,286047001.8,P
1524836115.5,286047002.2,P
1524836135.3,286046999.7,N
1524836155.1,286047002.8,N
1524836175.9,286046999.8,N
1524836195.7,286047003.7,Y
1524836215.6,286047000.7,P
1524836235.4,286047001.1,P
1524836255.2,286046999.9,N
1524836275.1,286047000.7,N
1524836276.0,286047000.7,N
1524836295.8,286047000.6,N
1524836315.6,286047000.9,N
1524836335.5,286047000.7,N
1524836355.3,286047000.8,N
1524836375.2,286047001.0,N
1524836395.9,286047001.0,N
1524836415.7,286047000.6,N
1524836435.6,286046998.3,Y
1524836455.4,286046999.1,P
1524836475.3,286046999.6,N
1524836495.1,286046999.4,N
1524836496.0,286046999.4,N
1524836515.8,286046998.4,N
1524836535.7,286046999.1,N
1524836555.5,286046998.6,N
1524836575.3,286046998.7,N
1524836595.2,286046998.5,N
1524836615.0,286046999.8,N
1524836615.9,286046999.8,N
1524836635.8,286047002.5,Y
1524836655.6,286047001.9,P
1524836675.4,286046999.9,N
1524836695.3,286046998.9,N
1524836715.1,286046997.1,N
1524836735.9,286046996.6,N
1524836755.7,286046997.0,N
1524836775.5,286046999.6,N
1524836795.4,286046999.4,N
1524836815.2,286047000.8,N
1524836835.0,286047000.6,N
1524836855.1,286046998.5,N
1524836875.9,286046998.1,N
1524836895.7,286046999.6,N
1524836915.5,286046997.7,N
1524836935.4,286046995.2,Y
1524836955.2,286046997.5,P
1524836975.0,286046994.9,P
1524836976.0,286046994.9,P
1524836995.8,286046995.3,N
1524837015.6,286046996.1,N
1524837035.5,286046995.3,Y
1524837055.3,286047000.4,P
1524837075.1,286047000.8,N
1524837095.9,286047000.6,N
1524837115.7,286047000.8,N
1524837135.6,286046999.8,N
1524837155.4,286047002.7,N
1524837175.2,286047000.4,N
1524837195.1,286047000.3,N
1524837196.0,286047000.3,N
1524837215.8,286047000.0,N
1524837235.7,286047000.1,N
1524837255.5,286047002.6,N
1524837275.3,286047001.9,N
1524837295.2,286047002.7,N
1524837315.0,286047002.3,N
1524837315.9,286047002.3,N
1524837335.8,286047001.0,N
1524837355.6,286047001.1,N
1524837375.4,286046998.9,N
1524837395.3,286046998.9,N
1524837415.1,286046998.7,N
1524837435.8,286046999.0,N
1524837455.7,286046996.6,N
1524837475.5,286046999.2,N
1524837495.4,286046999.2,N
1524837515.2,286046998.9,N
1524837535.0,286046999.0,N
1524837535.9,286046999.0,N
1524837555.8,286046999.6,N
1524837575.6,286046997.5,N
1524837625.5,286046996.7,E
